Location: Newark
(36.1358°N, 115.1208°W)
Time: 13:15:10
(UTC+00:00)

Vanguard 1 Rocket - Pass Details

Date: 24 February 2020
Orbit: 650 x 4226 km, 34.3° (Epoch: 06 April)

Event Time Altitude Azimuth Distance (km) Brightness Sun altitude
Rises 10:06:07 0° 252° (WSW) 5,354 - -49.9°
Reaches altitude 10° 10:10:25 10° 251° (WSW) 3,803 - -49.2°
Maximum altitude 10:19:01 66° 171° (S) 1,070 - -47.7°
Drops below altitude 10° 10:24:04 10° 89° (E) 2,276 - -46.8°
Exits shadow 10:25:08 - 87° (E) 2,700 10.4 -46.6°
Sets 10:26:03 0° 86° (E) 3,070 10.8 -46.5°
